New Delhi, India

11:05 PM IST on April 24, 2018 (GMT +0530)
Indira Gandhi International

Weather History for VIDP - September, 2012

Change the Weather History Date:

Thursday, September 6, 2012

  Actual Average Record
Temperature  
Mean Temperature 84 °F -  
Max Temperature 89 °F 90 °F 100 °F (2004)
Min Temperature 80 °F 74 °F 69 °F (2002)
Cooling Degree Days 20    
Growing Degree Days 34 (Base 50)    
Moisture  
Dew Point 75 °F    
Average Humidity 72    
Maximum Humidity 84    
Minimum Humidity 59    
Precipitation  
Precipitation 0.00 in - - ()
Sea Level Pressure  
Sea Level Pressure 29.69 in    
Wind  
Wind Speed 11 mph ()    
Max Wind Speed 18 mph    
Max Gust Speed 25 mph    
Visibility 2.3 miles    
Events      
Averages and records for this station are not official NWS values.
T = Trace of Precipitation, MM = Missing Value Source: Averaged Metar Reports

Daily Weather History Graph

Daily Weather History Graph

Search for Another Location

Airport or City:

Astronomy

Sep. 06, 2012 Rise Set
Actual Time 6:02 AM IST 6:37 PM IST
Civil Twilight 5:38 AM IST 7:00 PM IST
Nautical Twilight 5:10 AM IST 7:28 PM IST
Astronomical Twilight 4:41 AM IST 7:57 PM IST
Moon 10:01 PM IST (9/6) 11:04 AM IST (9/6)
Length of Visible Light 13h 22m
Length of Day
12h 34m
Waning Gibbous, 71% of the Moon is Illuminated
Sep 6
Waning Gibbous
Sep 8
Last Quarter
Sep 16
New
Sep 23
First Quarter
Sep 30
Full

Hourly Weather History & Observations

Time (IST) Temp. Heat Index Dew Point Humidity Pressure Visibility Wind Dir Wind Speed Gust Speed Precip Events Conditions
12:00 AM 84.2 °F 94.1 °F 77.0 °F 79% 29.71 in 2.5 mi East 9.2 mph - N/A   Partly Cloudy
12:30 AM 84.2 °F 94.1 °F 77.0 °F 79% 29.71 in 2.5 mi North 9.2 mph - N/A   Partly Cloudy
1:00 AM 82.4 °F 89.5 °F 75.2 °F 79% 29.71 in 2.5 mi East 11.5 mph - N/A   Partly Cloudy
1:30 AM 82.4 °F 89.5 °F 75.2 °F 79% 29.71 in 2.5 mi East 10.4 mph - N/A   Partly Cloudy
2:00 AM 82.4 °F 89.5 °F 75.2 °F 79% 29.71 in 2.5 mi East 9.2 mph - N/A   Partly Cloudy
2:30 AM 82.4 °F 89.5 °F 75.2 °F 79% 29.71 in 2.5 mi East 11.5 mph - N/A   Partly Cloudy
3:00 AM 82.4 °F 89.5 °F 75.2 °F 79% 29.71 in 2.5 mi East 11.5 mph - N/A   Partly Cloudy
3:30 AM 82.4 °F 89.5 °F 75.2 °F 79% 29.68 in 2.5 mi East 11.5 mph - N/A   Partly Cloudy
4:00 AM 80.6 °F 86.2 °F 75.2 °F 84% 29.68 in 2.5 mi East 13.8 mph - N/A   Partly Cloudy
4:30 AM 80.6 °F 86.2 °F 75.2 °F 84% 29.68 in 2.5 mi East 13.8 mph - N/A   Partly Cloudy
5:00 AM 80.6 °F 86.2 °F 75.2 °F 84% 29.68 in 2.5 mi East 9.2 mph 20.7 mph N/A   Partly Cloudy
5:30 AM 80.6 °F 86.2 °F 75.2 °F 84% 29.68 in 2.2 mi East 11.5 mph - N/A   Partly Cloudy
6:00 AM 80.6 °F 86.2 °F 75.2 °F 84% 29.68 in - East 12.7 mph - N/A   Partly Cloudy
6:30 AM 80.6 °F 86.2 °F 75.2 °F 84% 29.68 in - East 12.7 mph - N/A   Partly Cloudy
7:00 AM 80.6 °F 86.2 °F 75.2 °F 84% 29.71 in - East 13.8 mph - N/A   Partly Cloudy
7:30 AM 82.4 °F 89.5 °F 75.2 °F 79% 29.71 in - East 13.8 mph - N/A   Partly Cloudy
8:00 AM 82.4 °F 89.5 °F 75.2 °F 79% 29.71 in 2.2 mi East 17.3 mph - N/A   Scattered Clouds
8:30 AM 84.2 °F 90.9 °F 73.4 °F 70% 29.71 in 2.2 mi East 18.4 mph - N/A   Haze
9:00 AM 84.2 °F 90.9 °F 73.4 °F 70% 29.71 in 2.2 mi East 16.1 mph - N/A   Haze
9:30 AM 84.2 °F 90.9 °F 73.4 °F 70% 29.74 in 2.2 mi East 16.1 mph - N/A   Haze
10:00 AM 84.2 °F 90.9 °F 73.4 °F 70% 29.74 in 2.5 mi ESE 17.3 mph - N/A   Haze
10:30 AM 86.0 °F 93.4 °F 73.4 °F 66% 29.74 in 2.5 mi East 17.3 mph - N/A   Haze
11:00 AM 86.0 °F 93.4 °F 73.4 °F 66% 29.74 in 2.5 mi ESE 16.1 mph - N/A   Haze
11:30 AM 87.8 °F 95.6 °F 73.4 °F 62% 29.74 in 2.5 mi East 11.5 mph 23.0 mph N/A   Haze
12:00 PM 87.8 °F 95.6 °F 73.4 °F 62% 29.74 in 2.5 mi ESE 11.5 mph 23.0 mph N/A   Haze
12:30 PM 89.6 °F 98.2 °F 73.4 °F 59% 29.74 in 2.5 mi ESE 13.8 mph 25.3 mph N/A   Haze
1:00 PM 89.6 °F 98.2 °F 73.4 °F 59% 29.74 in 2.5 mi East 13.8 mph 25.3 mph N/A   Haze
1:30 PM 89.6 °F 98.2 °F 73.4 °F 59% 29.71 in 2.5 mi East 13.8 mph 25.3 mph N/A   Haze
2:00 PM 89.6 °F 98.2 °F 73.4 °F 59% 29.68 in 2.5 mi East 16.1 mph - N/A   Haze
2:30 PM 89.6 °F 98.2 °F 73.4 °F 59% 29.68 in 2.2 mi East 11.5 mph 23.0 mph N/A   Haze
3:00 PM 89.6 °F 98.2 °F 73.4 °F 59% 29.65 in 2.2 mi East 11.5 mph 23.0 mph N/A   Haze
3:30 PM 89.6 °F 99.8 °F 75.2 °F 62% 29.65 in 2.2 mi East 16.1 mph - N/A   Haze
4:00 PM 89.6 °F 98.2 °F 73.4 °F 59% 29.65 in 2.2 mi East 16.1 mph - N/A   Haze
4:30 PM 89.6 °F 98.2 °F 73.4 °F 59% 29.62 in 2.2 mi East 16.1 mph - N/A   Haze
5:00 PM 89.6 °F 98.2 °F 73.4 °F 59% 29.62 in 2.2 mi East 13.8 mph - N/A   Haze
5:30 PM 89.6 °F 98.2 °F 73.4 °F 59% 29.62 in 2.2 mi East 13.8 mph - N/A   Haze
6:00 PM 87.8 °F 95.6 °F 73.4 °F 62% 29.62 in 2.2 mi East 11.5 mph - N/A   Haze
6:30 PM 87.8 °F 95.6 °F 73.4 °F 62% 29.65 in 2.2 mi East 13.8 mph - N/A   Haze
7:00 PM 87.8 °F 95.6 °F 73.4 °F 62% 29.65 in 2.2 mi East 11.5 mph - N/A   Haze
7:30 PM 87.8 °F 97.6 °F 75.2 °F 66% 29.65 in 2.2 mi East 9.2 mph - N/A   Haze
8:00 PM 84.2 °F 94.1 °F 77.0 °F 79% 29.68 in 2.2 mi East 12.7 mph - N/A   Mostly Cloudy
8:30 PM 82.4 °F 90.9 °F 77.0 °F 84% 29.68 in 2.2 mi East 9.2 mph - N/A   Mostly Cloudy
9:00 PM 82.4 °F 90.9 °F 77.0 °F 84% 29.71 in 2.2 mi East 9.2 mph - N/A   Mostly Cloudy
9:30 PM 82.4 °F 90.9 °F 77.0 °F 84% 29.71 in 2.2 mi East 6.9 mph - N/A   Mostly Cloudy
10:00 PM 82.4 °F 90.9 °F 77.0 °F 84% 29.71 in 2.2 mi East 8.1 mph - N/A   Mostly Cloudy
10:30 PM 82.4 °F 90.9 °F 77.0 °F 84% 29.71 in 2.2 mi East 9.2 mph - N/A   Scattered Clouds
11:00 PM 82.4 °F 89.5 °F 75.2 °F 79% 29.71 in 2.2 mi East 13.8 mph - N/A   Scattered Clouds
11:30 PM 82.4 °F 89.5 °F 75.2 °F 79% 29.71 in 2.2 mi East 10.4 mph - N/A   Mostly Cloudy